Temp
28 28 28 28 28 27 27 27 27 27 27 26 26 26 26 26 26 26 26 26 26 26 26 26 26 26 26 26 26 26 26 26 26 25 25 25 25 25 25 25 25 25 25 26 26 27 27 27 27 27 27 27 27 28 28 29 29 28 28 28 28 27 28 27 27 27 27 27 28 28 28 28 28 29 29 29 29 29 29 29 29 29 29 30 30
29 28 28 28 28 28 28 27 27 27 27 27 27 27 26 26 26 26 26 26 26 26 26 26 26 26 26 26 26 26 26 26 26 25 25 25 25 25 26 26 26 26 25 26 26 26 26 26 26 26 27 27 27 27 28 29 28 28 28 28 28 27 27 27 27 27 27 27 27 28 28 28 28 28 28 28 28 29 29 29 29 29 29 30 30
28 28 28 28 28 28 28 28 28 28 28 28 28 28 27 27 27 27 27 26 27 26 26 27 26 26 26 26 26 26 26 26 26 25 26 25 25 26 26 26 26 26 26 26 26 26 26 26 26 27 27 27 27 27 28 28 28 28 27 27 27 27 27 27 27 27 27 27 27 27 28 28 28 28 28 28 28 29 29 29 29 29 29 29 29
28 28 28 28 28 28 28 28 28 28 28 28 29 29 28 28 27 27 27 27 27 27 26 27 27 26 26 26 26 26 26 26 26 26 26 26 26 26 26 26 26 26 26 26 26 26 27 27 27 27 27 27 27 27 27 27 28 28 27 27 27 27 27 27 27 27 27 27 27 27 27 27 28 28 28 28 29 29 29 29 29 29 29 29 29
28 28 28 28 28 29 29 29 29 28 28 29 29 29 29 29 28 28 28 27 27 27 27 27 26 26 26 27 26 26 26 26 26 26 26 26 26 26 26 26 26 26 26 26 26 27 27 27 27 27 27 27 27 27 27 27 27 27 27 27 27 27 27 27 27 27 27 27 27 27 27 28 28 28 29 29 29 29 29 29 29 29 29 29 29
28 27 27 28 28 28 29 29 29 29 29 29 29 29 29 29 29 29 28 28 28 27 27 27 26 26 26 26 26 26 26 26 26 26 26 26 26 26 26 26 26 26 26 26 27 27 27 27 27 27 27 27 27 27 27 27 27 27 27 27 27 27 27 27 27 27 27 27 27 28 28 28 28 29 29 29 29 29 29 29 29 29 29 29 29
26 27 27 27 27 27 28 28 28 29 29 29 29 29 30 30 30 29 29 29 28 28 28 27 27 26 26 26 26 26 26 26 26 26 26 27 27 26 26 26 26 26 26 27 27 27 27 27 27 27 27 27 27 27 27 27 27 27 27 27 27 27 27 27 28 28 28 28 28 28 28 28 28 29 29 29 29 29 29 29 29 29 29 29 29
26 26 26 27 27 27 27 27 27 28 28 29 29 29 30 30 30 30 29 29 29 29 28 28 27 27 26 26 26 26 26 26 26 26 26 26 26 27 27 27 27 27 27 27 27 28 28 28 28 28 27 27 27 27 27 27 27 27 27 27 27 27 27 27 27 27 27 27 28 28 28 28 28 29 29 29 29 29 29 29 29 29 29 29 29
25 25 25 26 26 25 26 25 26 26 27 28 28 28 29 29 29 29 29 29 29 29 29 29 28 27 26 26 26 26 26 26 26 26 26 26 26 27 27 27 27 27 28 28 27 28 28 28 28 27 27 27 27 27 27 27 27 27 27 27 26 26 26 26 27 27 27 27 27 27 28 28 29 29 29 29 29 29 29 28 28 28 28 28 28
24 24 24 25 25 24 24 24 25 25 26 26 26 26 27 27 27 28 29 29 29 28 28 29 29 28 27 26 26 26 26 26 26 26 26 26 26 27 27 27 27 27 28 27 27 27 28 28 28 28 28 28 27 27 27 27 27 27 27 27 26 26 26 26 26 26 27 27 27 27 28 28 28 28 28 28 28 28 27 27 27 27 27 27 27
23 24 24 24 24 23 23 24 24 25 25 25 26 26 26 25 25 25 26 27 28 28 28 28 29 29 28 27 27 26 25 26 26 26 26 26 26 26 27 27 27 27 27 27 27 27 27 28 28 28 28 28 27 27 27 27 27 27 27 27 27 26 26 26 26 26 26 26 27 27 27 27 27 27 27 27 27 26 26 26 26 26 26 26 26
22 23 23 23 23 23 23 23 24 24 24 24 24 25 25 26 26 25 24 24 25 26 27 27 27 28 28 28 27 26 25 26 26 26 26 26 26 27 27 27 27 27 27 27 27 27 27 28 28 27 27 27 27 27 27 27 27 27 27 27 26 26 26 26 26 26 26 25 25 26 26 26 26 26 26 26 25 25 25 25 25 25 25 25 25
21 22 22 22 22 22 23 23 23 24 24 24 24 24 24 24 25 25 25 24 23 25 26 26 26 26 26 26 25 25 25 25 26 26 27 26 26 27 27 27 27 27 26 26 27 27 27 26 26 26 26 27 26 27 27 27 27 26 26 26 26 26 26 25 25 25 25 25 25 25 25 26 26 25 25 25 25 25 24 24 24 25 25 25 25
20 21 20 21 21 21 22 22 22 23 23 23 23 23 23 24 23 23 24 23 24 24 25 25 25 25 24 24 24 25 25 25 26 26 26 26 26 26 27 27 27 27 27 26 25 25 25 24 24 24 25 26 26 26 26 26 26 26 25 25 25 25 25 25 25 25 25 25 25 25 25 25 25 25 25 25 24 24 24 24 24 24 24 24 24
20 20 20 20 20 20 21 21 21 21 21 21 22 22 22 23 22 22 23 23 23 23 23 23 23 24 24 23 24 24 25 25 26 26 26 26 26 26 26 26 27 27 27 25 24 24 24 24 24 24 24 25 25 25 25 25 25 25 25 25 25 25 25 25 25 25 25 25 25 24 24 25 25 25 24 24 25 25 24 24 24 23 24 24 24
19 19 19 19 19 19 20 20 20 20 20 21 21 21 21 22 21 22 22 23 23 22 21 22 23 23 23 23 23 24 24 25 25 25 25 26 26 26 26 26 26 26 25 24 24 25 25 24 24 24 24 24 24 24 24 24 25 25 25 25 25 25 25 25 25 25 25 25 24 24 24 24 24 24 25 25 25 25 24 24 24 24 24 24 24
19 19 19 19 19 19 19 19 20 20 20 20 20 20 21 21 21 21 22 22 22 22 22 22 22 22 23 22 23 23 24 24 24 24 24 25 25 25 25 25 25 25 24 24 24 24 24 24 23 24 23 23 24 24 24 24 24 24 24 24 24 25 25 25 25 25 24 24 24 24 24 24 24 25 25 25 25 25 24 24 24 24 23 23 23
20 19 19 19 19 19 19 19 19 19 19 19 20 20 20 20 20 21 21 21 21 22 22 22 22 22 22 21 22 22 23 23 24 24 24 24 24 25 24 24 24 24 23 23 23 23 23 22 22 23 23 23 23 23 23 23 24 23 23 23 24 25 24 24 24 24 24 24 24 24 24 25 25 25 25 25 25 25 24 24 24 23 23 22 23
21 21 20 20 19 19 19 19 18 18 18 19 19 19 19 19 20 20 20 20 20 21 21 21 21 20 20 21 21 21 21 22 22 23 23 23 24 24 24 24 23 23 23 23 23 23 22 22 21 22 22 22 22 23 23 23 23 23 23 23 24 24 23 23 23 23 24 24 24 24 25 25 25 25 25 26 26 25 24 24 23 23 23 22 22
20 21 21 21 20 20 19 19 19 19 18 18 19 19 18 19 19 19 19 19 19 20 20 20 20 19 19 20 19 19 19 20 20 21 22 22 22 23 22 23 23 22 22 22 22 22 21 21 21 21 21 21 22 22 22 22 22 22 22 22 23 23 23 23 23 24 24 24 24 24 25 25 25 26 26 26 26 25 24 24 23 23 23 23 23
19 20 20 20 20 20 20 20 20 19 19 19 19 19 19 18 18 18 19 19 19 19 19 19 19 18 18 18 18 18 18 19 19 20 20 21 21 22 22 22 22 22 22 21 21 21 20 20 20 20 21 21 21 21 22 22 22 22 22 22 22 22 23 23 24 24 24 23 23 24 24 25 25 26 26 26 25 24 24 24 23 23 23 23 23
20 19 19 19 19 19 19 20 20 20 19 19 19 19 19 18 18 18 18 18 18 18 18 17 17 17 17 17 17 17 18 18 19 19 20 20 21 21 21 21 21 21 21 21 21 21 21 20 20 20 20 20 21 21 22 22 22 22 22 22 22 22 22 23 23 23 22 22 23 23 23 24 24 25 25 25 24 24 23 23 23 23 23 23 23
20 20 20 20 19 19 19 20 20 20 19 20 20 20 19 19 18 17 17 17 17 17 17 17 16 16 16 16 16 16 16 17 18 18 19 19 20 20 20 20 20 20 20 20 20 21 21 20 19 20 20 20 20 21 21 22 22 22 22 22 22 22 22 23 23 22 22 22 23 23 23 23 24 24 23 23 23 23 22 22 22 23 23 23 23
20 20 20 20 20 20 19 19 20 20 19 19 20 20 20 19 18 18 18 18 17 17 17 17 17 16 16 16 16 15 15 16 16 17 18 19 19 19 19 19 19 20 19 19 19 19 19 19 19 20 20 20 21 21 21 22 22 22 22 22 22 22 22 22 22 22 22 22 22 22 23 23 23 23 22 22 22 22 22 22 22 22 22 23 23
20 21 21 21 21 20 20 20 20 20 20 19 19 20 20 19 19 19 19 19 18 18 18 18 17 17 16 16 16 16 16 15 16 17 17 17 18 18 18 19 19 19 19 19 19 19 19 19 20 20 20 21 21 21 22 22 22 22 22 22 22 22 22 22 22 22 22 22 22 23 23 23 22 22 22 22 22 22 22 22 22 22 22 22 22
20 20 20 20 21 21 21 21 21 21 20 20 20 20 20 20 19 20 20 20 19 19 19 18 18 17 17 16 16 16 16 16 16 16 16 16 17 17 18 18 19 19 19 18 19 19 19 19 20 20 20 21 21 22 22 22 22 22 22 22 22 22 22 21 22 22 22 22 22 22 22 22 22 22 22 22 22 22 22 21 21 21 21 21 21
20 20 20 20 20 21 21 21 21 21 20 20 20 19 19 19 18 18 19 19 19 20 20 20 19 19 18 17 16 16 16 16 16 16 16 16 16 16 17 17 17 18 18 18 19 19 20 20 20 21 21 21 21 22 22 22 22 22 21 21 22 22 22 22 22 22 21 21 21 21 21 21 21 21 22 22 22 22 21 21 21 21 21 21 21
20 20 20 20 20 21 21 21 21 20 19 19 19 18 18 18 17 17 17 17 18 19 19 19 19 19 18 17 17 17 16 16 16 16 17 17 17 17 17 17 17 18 18 19 19 20 20 21 21 21 21 21 21 21 21 22 21 21 22 22 22 22 23 22 22 21 21 21 21 21 21 21 21 21 21 21 21 21 21 21 21 21 21 21 21
20 20 21 21 21 21 21 21 20 19 19 18 18 17 17 17 17 17 17 17 17 17 18 18 18 17 17 17 17 16 15 15 15 16 16 17 17 17 17 17 17 18 18 18 19 20 20 20 20 20 20 21 21 22 22 22 22 22 22 23 23 22 22 22 21 20 21 21 21 20 20 20 20 21 21 21 20 20 20 20 20 21 21 21 21
20 21 21 20 20 21 21 21 20 19 18 18 17 17 17 17 17 17 17 17 17 17 17 17 16 16 16 16 16 16 15 15 15 15 16 16 16 17 17 17 17 17 17 18 18 19 19 19 19 20 21 22 22 23 23 23 23 23 23 23 22 21 21 20 20 20 20 20 20 20 19 20 20 20 20 19 19 19 19 20 20 20 20 20 21
20 20 19 18 18 19 19 19 19 18 18 18 17 17 16 16 16 16 17 17 17 17 17 16 16 16 16 16 15 15 15 15 15 15 15 16 16 16 16 16 16 16 17 17 18 18 18 19 20 21 22 22 23 23 23 22 22 22 22 21 21 20 19 19 19 19 19 19 19 19 19 19 19 19 19 19 18 19 19 19 19 19 20 20 20
19 18 18 17 17 18 18 18 18 18 18 18 18 17 17 16 15 16 16 16 16 16 16 16 16 15 15 15 15 15 15 14 15 15 15 15 15 15 16 16 16 16 17 17 17 18 18 19 20 21 21 22 21 21 21 21 21 20 20 20 19 18 18 18 18 18 19 19 18 18 18 18 18 18 18 18 18 18 19 19 19 19 19 19 19
18 18 17 17 17 17 17 17 17 17 17 17 18 18 18 17 16 15 15 15 15 15 15 15 15 15 15 15 14 14 14 14 14 15 15 15 15 15 16 16 16 16 17 17 17 17 19 20 21 21 21 20 20 20 20 20 19 19 19 19 18 18 17 17 18 18 18 18 17 17 18 17 17 18 18 18 18 18 18 18 18 18 18 18 18
17 17 16 16 16 17 17 17 17 17 16 17 17 18 18 18 17 17 16 15 15 15 15 15 14 14 14 14 14 14 14 14 14 14 14 15 15 15 16 16 16 17 17 17 17 18 18 19 19 19 19 19 19 19 19 18 18 18 18 18 18 17 17 17 17 17 17 17 17 17 17 17 17 17 17 17 18 17 17 17 17 17 17 17 17
16 16 16 16 16 17 17 16 16 16 16 16 16 17 18 18 18 18 18 16 16 15 15 14 14 14 14 14 14 14 13 13 14 14 14 15 15 15 16 16 16 16 17 18 18 17 17 17 17 17 17 17 17 17 17 17 17 17 17 17 17 16 16 16 16 16 16 16 16 17 17 17 17 17 17 17 17 16 16 16 16 16 16 16 16
16 16 16 16 17 17 16 16 15 15 15 15 16 16 17 17 18 18 18 18 18 17 15 14 14 14 13 13 14 14 13 13 14 14 14 14 15 15 15 15 16 17 17 17 17 17 16 16 15 15 15 15 15 15 15 15 16 16 16 16 15 15 15 15 15 15 15 16 16 16 16 16 16 16 16 15 15 15 15 15 15 14 14 14 14
17 17 17 16 16 16 15 15 15 15 15 15 15 16 17 17 17 18 18 18 18 18 16 15 14 14 13 13 13 14 14 14 14 14 15 15 15 15 16 16 16 17 16 16 16 16 16 15 15 15 15 15 14 14 14 15 15 15 15 15 15 15 15 15 15 15 15 15 15 15 14 14 14 14 13 14 14 13 13 13 13 13 13 13 13
16 16 16 16 16 16 15 15 15 15 15 15 16 16 17 17 17 17 17 17 17 17 17 17 16 14 13 13 13 13 14 15 15 15 15 15 15 15 15 15 16 16 15 15 15 15 15 15 15 14 14 14 14 14 14 14 14 14 14 14 14 15 15 15 15 14 14 14 13 13 13 13 12 12 11 12 12 11 11 11 11 12 12 12 12
15 16 16 16 15 15 15 16 16 16 16 16 17 17 17 17 17 17 17 17 17 17 17 17 15 13 12 12 12 13 14 14 14 14 14 14 14 14 14 14 15 15 15 14 14 14 14 14 14 14 14 14 14 14 14 14 14 14 14 14 14 14 14 14 14 13 13 12 12 12 11 11 10 10 10 10 10 10 10 10 11 11 11 11 11
15 15 15 15 15 15 15 16 16 16 16 16 17 17 17 17 17 17 17 17 17 17 17 16 14 12 12 12 12 13 13 13 13 14 14 13 13 13 13 13 13 13 13 13 13 13 13 13 13 13 13 13 14 14 14 13 13 13 13 14 14 14 14 13 13 12 12 11 10 10 9 9 8 9 9 9 9 9 9 9 10 10 10 10 10
16 15 14 15 15 15 15 16 16 16 16 16 16 16 16 16 16 16 16 17 16 16 16 15 13 12 12 12 12 12 13 12 12 14 14 13 12 12 12 12 12 12 12 12 12 12 12 12 12 12 12 13 13 13 13 12 12 12 12 12 12 12 12 12 12 11 10 9 8 8 8 8 8 8 8 8 8 8 8 9 9 9 9 9 9
16 15 15 14 15 15 16 16 16 15 15 15 15 16 16 16 15 15 15 16 15 16 16 14 12 12 12 11 12 12 12 12 13 14 14 13 12 11 11 11 11 11 11 11 11 11 11 11 11 11 12 12 12 12 12 11 11 10 10 10 11 11 11 11 10 9 8 8 7 7 7 7 7 7 7 7 7 8 8 8 8 8 9 9 9
17 16 16 15 15 15 16 16 16 15 15 15 15 15 15 15 14 15 15 15 15 15 15 14 13 12 11 11 12 12 12 12 13 13 12 12 12 12 11 11 11 10 10 11 11 10 10 10 11 11 11 11 11 10 10 10 10 10 10 10 10 10 10 9 8 7 7 7 7 6 6 6 6 6 7 7 7 7 7 7 8 8 8 8 8
16 16 16 15 15 15 16 15 15 15 15 14 14 14 14 14 14 14 14 15 15 15 15 15 14 13 12 12 12 12 12 12 12 12 11 11 11 11 10 10 10 10 10 10 10 9 9 10 10 10 10 10 9 9 9 9 9 9 9 9 9 8 8 7 7 7 6 6 6 6 6 5 5 6 6 6 6 6 7 7 7 7 7 7 7
15 15 15 15 15 15 15 15 15 14 14 14 14 14 14 14 14 14 14 14 15 14 14 15 14 13 12 12 12 12 11 11 11 11 11 11 11 10 9 9 9 9 9 9 9 9 9 9 9 9 9 8 8 8 8 8 8 8 8 8 7 7 7 6 6 6 6 5 5 5 4 5 5 5 5 6 6 6 6 6 6 6 7 7 7
14 15 15 15 16 15 15 15 15 15 14 14 14 14 14 14 14 14 14 14 13 12 12 13 13 13 12 12 11 11 11 11 10 10 10 10 10 9 8 8 8 8 8 9 9 9 9 9 8 8 7 7 7 7 7 8 8 8 7 7 7 6 6 6 5 5 5 5 4 4 4 4 4 4 5 5 5 5 5 5 5 5 6 6 6
14 15 15 15 16 16 15 15 15 14 14 14 14 14 14 14 14 14 13 12 11 10 10 11 11 12 12 11 11 10 10 10 10 10 10 10 10 9 8 8 8 8 8 8 8 8 8 8 7 6 6 6 7 7 7 7 7 7 6 6 6 6 5 4 4 4 4 4 3 3 3 3 3 4 4 4 4 4 5 5 5 5 5 5 6
15 15 15 15 15 15 15 14 14 13 13 13 13 13 13 13 13 13 12 12 11 10 10 10 10 11 11 11 10 10 10 10 10 10 10 10 9 8 8 8 8 8 8 8 8 8 7 7 6 6 6 6 6 6 6 7 7 6 5 5 5 4 4 4 4 3 3 3 3 2 2 3 3 3 4 4 4 4 4 5 5 5 5 6 6
14 14 14 14 14 14 14 15 14 13 13 13 13 13 13 12 12 11 11 11 11 10 10 10 10 11 11 10 10 10 9 9 9 9 9 9 9 8 8 8 7 7 7 7 7 7 7 6 6 6 6 6 6 6 6 6 6 5 4 4 4 4 4 4 3 3 3 3 3 3 3 3 3 3 3 4 4 4 4 5 5 5 5 5 6
12 13 13 13 13 14 14 14 14 14 13 13 13 13 13 12 11 10 10 10 10 10 10 10 10 10 10 10 9 9 8 8 8 8 8 8 8 8 8 7 7 6 6 6 6 6 6 6 6 6 5 5 5 5 5 5 5 4 4 4 4 4 3 3 3 3 3 3 3 3 3 2 2 3 3 4 4 4 5 5 5 5 5 5 5
11 12 12 12 12 13 12 12 13 13 13 13 13 13 13 12 11 10 10 10 10 10 9 9 9 9 9 8 8 8 8 8 7 7 7 7 8 7 7 7 6 6 5 5 5 5 6 5 5 5 5 5 5 4 4 4 4 4 4 4 4 3 3 3 3 3 3 3 3 3 3 2 2 3 4 4 4 4 5 5 5 5 6 6 6
Height
821 824 826 828 829 831 833 835 837 839 840 841 843 844 845 845 846 846 846 847 848 848 849 849 850 851 852 852 853 854 854 855 856 856 856 857 857 858 858 858 859 859 860 860 860 861 861 861 862 862 862 862 862 862 862 863 863 863 863 863 863 864 864 864 864 863 863 862 862 861 860 858 858 857 857 857 857 856 855 854 853 852 850 849 849
820 822 824 826 828 829 831 833 835 837 838 840 840 842 843 843 844 845 845 846 846 847 848 848 849 850 851 852 852 853 853 853 854 855 856 856 856 857 857 857 858 858 859 859 859 860 860 860 861 861 861 862 862 862 862 862 862 862 862 863 863 863 863 864 864 863 863 862 862 861 860 859 858 858 858 857 856 856 854 854 853 852 851 850 849
819 821 822 825 826 828 830 831 833 835 836 837 838 839 841 841 843 843 844 845 845 846 847 848 848 849 850 851 851 851 852 852 853 854 855 855 855 856 856 856 857 857 858 858 858 859 859 859 860 860 860 861 861 862 862 861 862 862 862 862 862 862 863 864 863 863 862 862 861 861 860 859 858 858 858 857 856 855 854 854 853 852 851 850 849
818 820 821 823 825 826 828 830 832 833 834 835 836 837 839 840 841 842 843 844 844 845 846 846 847 848 849 850 851 851 851 851 852 853 853 854 854 855 856 855 856 856 857 857 857 858 858 858 859 859 859 860 860 861 861 861 861 862 862 862 862 862 862 863 863 863 862 862 861 861 859 859 858 858 857 856 855 855 854 853 852 851 850 850 849
817 819 820 822 823 825 827 828 830 831 832 834 834 836 837 838 839 840 841 842 843 844 845 845 846 847 848 849 850 850 850 851 851 852 852 853 854 854 855 855 855 855 856 856 856 857 857 857 858 858 858 859 860 860 861 861 861 862 862 862 862 862 862 862 863 862 862 862 861 860 859 858 857 857 856 855 855 854 853 852 851 850 850 849 848
817 818 819 821 823 824 825 826 828 829 831 832 833 834 835 836 838 839 840 841 842 843 844 845 845 846 847 848 849 849 850 850 851 851 852 852 852 853 854 854 854 854 855 855 856 856 856 856 857 857 858 858 859 860 860 860 861 861 862 862 862 862 862 862 862 861 861 860 860 859 858 857 856 856 855 854 853 852 851 851 850 849 848 848 847
817 818 819 821 822 824 825 826 827 828 830 831 832 833 834 835 836 837 838 840 841 842 843 844 844 844 845 847 847 848 849 849 850 850 851 851 851 852 852 853 853 853 854 854 854 855 855 855 856 856 857 858 858 859 859 860 860 861 861 861 861 861 861 861 861 860 860 859 859 858 857 857 856 855 854 853 852 851 850 849 848 848 847 846 846
816 817 819 820 822 823 824 826 827 828 830 831 832 833 834 834 835 836 837 838 840 841 841 842 843 843 844 845 846 847 848 849 849 849 849 850 850 851 851 852 852 852 852 853 853 854 854 855 855 856 856 857 857 858 858 859 859 860 860 860 860 860 860 860 860 860 859 859 858 858 857 856 855 853 853 852 851 851 850 849 848 847 847 846 845
816 817 818 819 821 823 824 826 828 829 830 830 832 833 834 835 835 836 837 837 838 839 840 841 842 843 843 844 845 846 847 848 849 849 849 849 849 850 850 851 851 852 852 852 852 852 853 854 854 855 855 855 856 857 858 858 858 859 860 859 859 859 859 859 859 859 859 858 858 857 856 855 854 853 852 852 851 851 850 849 848 847 846 845 844
816 818 819 819 821 822 823 825 827 828 828 829 830 832 833 835 836 836 837 837 838 838 839 839 840 841 842 843 845 845 846 847 847 847 848 848 849 849 849 850 850 851 851 851 851 852 852 853 853 854 854 854 854 855 856 857 857 858 858 858 858 859 858 859 859 858 858 858 857 856 855 854 853 853 852 852 851 850 849 849 848 846 846 844 842
816 817 818 819 820 821 822 823 824 825 827 828 829 830 831 833 835 837 838 838 838 838 838 839 839 839 840 842 843 844 845 845 845 846 846 847 848 848 848 849 849 850 850 850 851 851 851 852 852 853 853 852 853 854 855 855 856 856 857 857 857 858 858 858 858 858 858 857 857 856 855 854 854 853 853 852 851 850 850 849 848 846 845 844 842
815 817 818 819 820 821 822 822 823 825 826 827 828 828 828 830 833 836 838 840 840 838 837 838 838 839 840 840 840 841 843 844 843 844 844 845 847 847 847 848 848 849 850 850 850 851 851 852 852 853 852 852 853 853 854 854 855 855 856 856 856 857 857 857 857 857 857 856 856 855 855 854 853 853 853 852 851 850 849 848 848 846 845 844 842
815 816 817 819 819 820 821 822 823 825 826 826 827 827 827 828 830 832 836 839 842 840 838 837 838 839 840 840 840 840 842 842 842 842 843 843 845 846 846 847 848 848 850 850 849 850 850 851 851 852 853 852 852 853 853 853 854 854 855 855 855 855 856 856 856 855 855 855 854 854 854 854 853 852 852 851 850 849 848 847 846 845 844 843 841
815 816 817 818 819 820 820 821 823 824 825 826 826 826 827 828 829 831 833 836 840 840 839 838 838 838 839 840 841 841 841 841 841 842 842 842 844 845 846 847 847 848 849 848 848 849 850 850 851 852 853 853 852 852 853 853 853 853 854 854 854 854 854 854 854 853 853 853 853 852 852 852 852 851 850 850 849 847 846 845 844 844 842 841 839
816 817 818 818 819 819 820 821 823 824 825 825 825 826 827 828 830 832 832 834 837 838 839 838 838 838 838 840 841 841 841 841 841 841 841 842 843 844 845 845 846 847 847 846 846 848 849 849 850 852 852 852 852 852 852 854 853 853 853 853 853 853 852 852 852 852 852 852 851 851 851 851 851 850 849 848 847 846 845 844 843 842 840 839 838
817 818 818 818 819 819 819 821 822 823 824 825 825 826 827 828 830 832 832 834 835 837 838 839 839 838 838 838 839 840 840 840 840 840 841 842 842 843 843 844 845 846 846 845 846 848 848 848 850 852 852 852 851 851 852 853 853 853 852 852 853 853 852 851 851 851 850 850 850 850 849 849 849 848 847 846 845 844 843 842 841 840 839 838 836
818 819 819 819 819 819 820 820 821 822 823 824 825 826 826 827 829 830 832 833 834 835 836 837 838 838 837 838 839 840 840 839 839 839 841 842 842 842 842 843 844 844 845 845 847 847 848 849 850 851 851 850 849 849 850 851 851 851 851 852 852 852 851 851 850 850 850 849 849 848 848 847 847 846 845 844 843 842 841 840 840 839 839 837 836
818 819 819 820 820 820 820 820 821 821 822 822 824 824 825 826 827 828 830 831 832 833 834 834 836 836 837 837 838 838 838 838 838 838 839 840 841 841 841 841 842 844 844 845 846 846 847 848 848 848 848 847 847 848 848 849 849 850 851 851 851 851 850 849 849 849 848 847 847 846 846 845 845 844 843 842 841 841 840 840 840 839 839 837 836
819 819 820 821 821 822 821 821 821 822 822 822 823 823 824 824 825 826 828 829 830 831 831 832 833 835 836 837 836 836 837 837 837 837 837 838 839 840 840 840 841 843 844 844 845 846 847 847 847 847 846 846 847 847 848 848 849 849 850 850 850 850 849 848 848 847 846 846 845 845 844 843 843 842 841 840 839 839 839 839 839 839 838 837 836
820 820 821 821 822 823 823 823 823 823 823 823 823 823 823 823 824 825 826 827 828 829 829 830 832 833 835 836 836 836 836 835 836 836 836 837 838 839 839 839 839 841 842 843 845 846 847 847 847 847 847 847 847 847 848 848 848 849 849 849 849 848 847 847 847 846 845 844 844 843 843 842 842 841 840 839 838 838 839 839 839 838 838 837 836
822 822 822 822 823 824 824 824 824 824 824 824 824 824 824 824 825 825 826 827 827 827 828 828 830 831 833 834 835 836 836 836 836 836 836 836 837 839 840 839 839 840 841 843 844 846 848 848 848 847 847 846 847 847 847 848 848 848 848 848 848 847 847 846 846 845 844 844 843 843 842 842 841 840 840 839 839 839 839 839 838 838 837 837 835
824 824 824 824 825 825 825 825 825 826 826 826 826 826 826 826 826 826 827 827 827 827 828 829 830 831 832 834 835 836 836 836 836 837 837 836 836 838 839 839 838 839 840 841 842 844 846 847 847 847 846 846 846 846 847 847 847 847 847 847 846 846 845 845 845 844 843 843 843 843 842 841 841 840 839 839 839 839 838 838 838 837 837 836 835
825 825 825 825 826 826 826 827 827 827 828 828 828 828 827 827 827 828 828 828 828 829 830 830 831 832 833 834 836 837 837 836 835 836 836 836 837 838 839 839 838 838 839 840 841 842 844 845 846 846 846 846 846 845 845 845 846 846 845 845 845 844 844 844 843 843 843 843 843 843 842 841 841 840 839 839 839 839 839 838 837 836 835 835 835
826 826 826 826 827 827 828 828 828 829 829 830 830 829 829 829 829 829 830 830 831 832 832 833 833 834 835 835 836 838 839 838 836 835 835 837 838 839 840 840 839 838 838 839 840 841 842 843 844 844 845 845 844 844 844 844 844 844 844 843 843 843 842 842 842 842 843 843 843 842 842 841 841 840 840 840 840 839 839 838 837 836 835 834 834
827 827 827 828 828 828 828 828 829 830 830 831 831 831 831 831 831 831 832 832 833 833 834 834 835 835 836 837 837 838 839 839 838 836 836 837 838 839 840 840 839 838 838 839 840 840 841 842 842 842 843 843 843 843 843 842 842 842 842 842 842 841 841 841 841 842 842 842 842 842 842 841 841 841 840 840 839 839 838 837 836 835 834 834 833
829 829 829 829 829 829 829 829 829 830 831 831 832 833 833 833 833 833 833 833 834 834 834 835 836 836 837 838 838 839 840 840 840 838 838 838 838 839 840 840 840 840 839 839 840 840 840 841 841 841 841 841 841 841 841 841 841 840 840 840 840 840 840 840 841 841 841 842 842 842 841 841 841 840 840 839 839 838 837 836 836 835 834 833 832
830 830 830 830 830 830 830 830 830 831 832 832 833 834 834 834 834 833 833 834 834 835 835 836 836 837 837 838 839 840 840 841 841 840 839 839 839 840 840 841 841 840 840 840 840 840 840 840 840 840 840 840 840 840 840 840 840 839 839 839 839 839 839 839 840 840 840 841 842 841 841 841 840 840 840 839 839 838 837 836 835 835 834 833 832
831 831 831 831 831 831 831 831 832 833 833 833 834 834 835 836 836 835 835 835 835 835 836 836 837 837 838 839 840 840 841 842 842 841 841 841 841 841 841 841 841 840 840 839 839 839 839 839 838 839 839 839 839 839 839 839 839 838 839 839 839 839 839 839 839 839 840 841 842 841 841 841 840 840 840 839 839 838 837 836 836 835 834 832 831
832 832 832 832 832 832 832 832 833 833 834 834 835 836 836 837 837 837 837 837 837 837 837 837 838 838 838 839 840 841 841 842 843 842 842 842 842 842 841 841 841 841 840 839 838 838 838 837 837 838 838 838 838 837 837 837 837 838 839 839 838 838 838 838 838 839 840 841 841 841 841 841 840 840 839 839 838 837 837 837 836 835 833 832 831
832 832 832 833 833 832 832 833 834 834 835 835 836 836 837 838 838 838 838 838 838 838 838 838 839 840 840 840 840 841 842 843 843 843 843 843 843 842 841 841 841 840 840 839 838 838 837 837 837 837 837 837 837 836 836 836 837 838 838 839 838 838 838 839 839 840 840 841 841 841 841 841 841 840 839 839 838 838 837 837 836 835 834 832 831
833 833 834 834 835 834 834 835 835 835 836 836 837 837 837 838 838 839 839 839 839 839 839 840 840 840 840 841 841 842 842 843 843 843 843 843 843 842 842 841 841 840 839 839 838 838 837 837 837 836 836 837 836 836 836 837 837 838 838 839 840 840 840 840 840 840 840 840 840 841 841 841 841 840 840 839 839 838 838 837 836 835 834 833 832
834 834 835 836 836 836 836 836 836 837 837 837 837 838 838 838 839 839 839 839 839 840 840 840 841 841 841 842 842 842 843 843 843 843 843 843 842 842 841 841 840 840 839 839 838 838 837 837 837 836 837 837 836 836 837 838 838 839 839 841 842 842 841 842 841 841 841 841 841 841 841 841 841 840 840 840 839 838 838 837 836 835 834 833 832
835 835 836 837 837 837 837 837 837 838 837 837 838 838 838 838 839 839 840 840 840 841 841 841 842 842 842 843 843 843 843 843 843 843 843 843 842 842 841 841 840 840 839 839 839 838 838 838 838 838 838 838 838 838 839 839 840 840 841 842 842 843 843 843 842 842 842 841 841 841 841 841 841 841 841 840 839 838 838 837 836 836 834 833 833
835 836 836 837 837 838 838 838 838 838 838 838 838 838 838 838 838 838 839 839 840 841 841 841 842 842 843 843 843 842 842 842 842 843 843 842 842 842 841 841 841 840 840 839 839 839 839 839 839 839 839 839 839 840 840 840 841 841 842 842 843 843 843 843 843 843 842 842 842 842 842 842 842 841 841 840 839 839 838 837 837 836 835 834 833
836 836 837 837 837 838 838 838 838 839 839 839 839 838 838 838 838 838 839 839 839 840 840 841 842 842 843 843 843 843 842 842 842 842 842 842 842 841 841 841 841 841 840 840 840 840 840 840 840 840 840 841 841 841 841 842 842 842 843 843 843 843 843 843 843 843 843 843 843 843 843 843 842 842 841 841 840 840 839 838 838 837 836 835 834
836 837 837 837 837 838 838 839 839 839 839 839 839 839 839 839 839 839 839 839 839 840 840 841 842 842 843 843 843 843 843 842 842 842 841 841 841 841 841 841 841 841 840 841 841 841 841 841 841 842 842 842 842 843 843 843 844 844 844 844 844 844 844 844 844 844 844 844 843 843 843 843 842 842 842 841 841 840 840 839 838 837 836 836 835
836 836 837 837 838 838 838 839 839 839 839 839 839 840 840 840 840 840 839 840 840 840 841 841 841 842 843 844 844 844 843 843 843 842 842 842 842 842 842 842 841 841 841 842 842 842 842 843 843 843 844 844 844 844 845 845 845 845 845 845 845 845 845 845 845 844 844 844 844 843 843 843 843 842 842 842 842 841 840 840 839 838 837 836 835
835 835 836 837 838 838 839 839 839 839 839 839 839 840 840 840 840 840 840 841 841 841 842 841 841 842 844 845 845 844 844 843 843 842 842 843 843 843 843 842 842 842 843 843 843 843 844 844 844 844 845 845 846 846 846 846 846 847 846 846 846 846 846 846 845 845 844 844 844 844 844 844 844 843 843 843 843 842 842 841 840 839 838 837 836
835 835 836 837 837 838 839 839 839 839 839 839 839 840 840 840 840 840 841 841 841 841 842 842 842 843 844 845 845 845 844 844 844 843 843 844 843 843 843 843 843 843 844 844 844 844 844 845 846 846 846 846 847 847 847 847 847 848 847 847 847 847 847 846 846 845 845 845 845 845 845 845 844 844 844 845 844 843 843 842 841 840 839 837 836
834 835 836 836 837 838 838 839 839 839 839 839 840 840 840 840 840 840 841 841 841 841 842 843 843 844 844 844 844 844 845 845 845 845 845 844 844 844 844 844 845 845 845 845 845 845 845 846 846 847 847 848 848 848 848 848 848 848 848 848 848 847 847 847 846 846 846 846 845 845 845 845 845 845 845 845 845 844 843 842 841 840 839 838 836
834 835 836 836 837 838 838 838 839 839 839 839 839 839 840 840 841 841 841 841 841 842 842 843 843 844 844 844 844 844 845 845 845 845 845 845 845 845 845 845 846 846 846 846 847 847 847 848 848 848 848 848 848 848 848 848 848 848 848 848 848 847 847 847 847 846 846 846 846 846 846 846 846 846 846 845 845 844 843 842 841 840 838 837 836
833 835 835 836 837 837 837 837 838 838 839 839 839 839 840 840 841 841 841 842 842 842 843 843 843 843 844 845 845 845 844 844 845 846 845 845 845 845 846 846 846 846 847 847 848 848 848 849 849 849 849 849 849 848 848 849 849 849 849 849 848 848 848 848 847 846 846 847 847 847 847 847 847 847 846 845 845 844 843 842 840 839 838 836 835
831 833 835 836 836 836 836 836 837 838 838 839 839 839 840 840 841 842 842 842 842 843 843 843 843 843 843 844 845 845 845 845 845 845 845 845 846 846 846 846 847 847 848 848 848 848 848 849 850 850 850 850 849 849 849 850 850 850 850 850 849 849 849 848 847 847 847 848 848 848 848 848 847 847 846 845 844 843 842 841 840 838 837 836 834
829 831 833 834 835 835 835 836 836 837 838 838 838 839 839 839 841 841 841 842 842 842 842 843 843 843 844 844 845 846 846 846 846 846 846 847 847 846 846 847 847 848 849 849 849 849 849 850 850 850 850 850 850 849 850 850 850 850 850 850 849 849 848 848 849 849 849 849 849 849 849 848 847 847 846 845 844 842 841 840 839 838 837 835 834
828 830 832 832 833 834 835 835 835 836 837 837 838 838 838 839 839 839 840 841 841 841 842 842 842 843 844 845 845 846 846 847 847 847 847 847 847 847 847 847 848 849 849 849 849 850 850 850 850 850 850 850 850 850 851 851 851 851 850 849 849 849 849 849 850 850 849 849 849 849 849 848 847 846 845 844 843 842 841 840 839 837 836 835 833
827 829 830 831 831 832 833 833 834 835 835 836 836 837 838 838 838 838 839 840 841 841 842 842 842 843 844 845 846 847 847 847 848 848 848 848 848 847 847 848 849 849 849 850 850 850 850 850 850 850 850 850 851 851 851 851 852 851 849 848 849 849 849 849 849 849 849 849 849 849 848 847 846 845 844 843 842 841 840 839 838 837 836 835 833
826 827 829 829 830 831 832 832 833 833 834 835 836 836 837 837 837 838 839 840 841 843 844 844 844 844 844 845 846 847 847 847 848 847 848 848 847 848 848 849 849 850 850 850 850 850 850 850 850 850 851 851 851 851 851 851 852 850 848 848 849 849 849 849 849 849 849 848 848 848 847 846 845 844 843 842 841 840 839 839 838 837 836 834 833
825 826 828 828 829 831 832 832 832 833 834 835 836 836 837 837 839 841 841 841 842 844 845 845 845 845 845 845 846 846 847 847 847 847 848 848 847 848 849 849 850 850 850 850 850 850 850 850 850 850 851 851 851 851 851 851 851 849 847 848 848 848 848 849 848 848 847 847 846 846 845 844 843 843 842 841 841 840 839 838 837 836 835 834 832
824 825 827 828 830 831 831 830 831 832 833 835 835 836 837 839 841 842 843 843 843 844 844 845 845 844 844 845 845 846 847 847 847 847 848 847 848 848 849 849 850 850 850 850 850 850 850 850 850 850 850 850 850 850 851 851 850 848 847 847 848 847 847 847 847 846 846 845 844 844 843 842 842 842 841 841 840 840 839 838 837 835 834 833 832
824 825 827 829 829 829 829 829 830 831 833 834 835 834 835 838 841 843 843 843 843 843 844 844 844 844 844 845 845 846 847 847 847 847 847 847 848 848 848 849 849 849 850 850 850 850 850 850 850 850 850 850 850 850 850 849 848 847 847 847 847 846 846 846 845 845 844 843 843 842 842 841 841 841 841 840 840 839 838 837 835 834 833 832 830
825 827 828 829 829 829 830 831 831 831 832 834 834 834 834 836 840 842 842 842 843 843 843 844 844 844 845 845 845 846 846 846 847 847 847 847 847 847 848 848 849 849 849 850 849 849 849 849 849 849 849 849 849 849 849 848 847 847 846 846 846 845 845 845 844 843 843 842 842 841 841 840 840 840 840 839 839 838 836 835 834 832 831 830 828
Wind_Speed
20 19 17 17 16 16 16 16 15 15 15 16 16 16 16 14 13 13 13 13 11 10 11 12 12 12 12 12 11 11 11 11 11 10 10 10 10 9 9 10 9 9 8 8 7 7 5 5 5 5 5 5 4 5 6 5 3 4 5 4 3 3 3 3 3 6 8 9 9 10 11 11 11 10 10 10 10 11 11 11 12 15 17 14 12
17 18 17 16 16 15 15 15 15 15 15 15 16 16 16 15 14 14 13 13 12 11 11 11 12 13 12 12 12 12 12 12 11 10 10 10 10 10 10 11 11 11 10 9 8 8 6 6 5 5 6 6 5 6 6 5 3 3 4 5 4 3 2 3 4 5 7 9 9 9 10 10 10 10 9 10 11 12 11 11 12 14 15 14 13
15 17 17 16 16 15 15 15 15 15 14 14 15 15 15 16 15 15 15 14 12 12 12 11 12 12 12 12 12 12 12 13 13 12 12 12 12 11 10 10 11 11 10 9 9 8 8 7 6 6 6 6 5 6 6 5 3 3 3 4 3 2 2 2 4 5 7 9 9 9 9 9 9 9 9 9 11 11 11 12 13 13 14 13 14
13 13 14 14 15 15 15 14 14 14 14 14 14 14 14 14 14 14 14 14 13 13 12 12 12 12 12 11 11 11 11 12 13 13 13 13 12 11 10 9 10 11 11 10 10 10 9 8 8 7 6 6 6 6 6 6 4 3 4 3 3 3 3 3 5 5 6 8 9 9 10 10 10 9 8 9 10 11 11 12 13 13 13 12 14
12 11 11 12 12 13 14 14 14 15 15 14 14 13 13 13 13 14 14 13 14 14 14 13 12 13 13 11 11 12 11 12 12 13 12 12 12 11 11 11 11 11 11 11 10 10 9 9 8 7 7 6 6 7 6 6 4 4 5 4 3 4 4 4 5 6 6 8 9 10 11 11 9 8 8 9 10 11 11 12 13 12 12 13 13
12 11 12 12 12 12 11 11 13 14 14 13 13 13 13 13 13 13 13 14 14 15 15 13 12 13 13 12 12 13 13 12 12 13 12 12 12 12 12 12 12 12 11 11 11 10 10 10 9 8 8 7 7 7 6 5 4 5 6 5 4 4 4 5 6 8 8 9 10 11 11 9 9 9 9 9 11 13 13 12 12 12 12 13 13
8 9 11 12 12 11 10 9 10 10 11 12 11 12 13 13 14 14 14 13 13 14 14 15 15 15 14 13 13 13 13 13 13 13 12 11 11 12 12 13 13 13 13 12 11 11 11 11 10 10 9 9 7 7 6 6 6 5 5 5 4 4 5 5 7 8 8 9 10 11 10 9 10 11 11 12 13 13 13 13 14 13 12 12 13
5 6 7 7 8 10 11 10 9 8 9 10 10 11 12 12 12 13 14 14 14 13 14 16 16 15 14 14 13 13 13 13 13 13 13 12 11 11 12 13 13 13 13 12 11 11 10 10 10 10 9 9 8 7 7 7 5 3 3 4 3 4 5 6 7 8 8 9 10 11 11 12 14 15 14 13 12 12 13 15 15 13 12 14 16
2 3 5 5 4 5 7 8 8 9 9 8 8 9 11 12 11 11 11 12 13 13 14 14 14 14 15 15 14 13 13 13 13 13 14 14 13 12 12 13 13 12 11 11 11 11 11 10 11 10 9 9 9 9 7 6 5 3 4 4 3 3 4 5 7 8 8 9 10 11 13 14 14 14 12 12 13 14 16 17 16 17 18 20 20
6 4 4 5 3 2 5 7 9 10 10 9 8 8 10 11 11 10 11 11 12 12 13 14 14 14 15 15 15 13 11 12 13 13 14 14 13 12 11 12 12 12 11 10 10 11 11 11 10 11 10 9 9 11 11 10 10 9 9 9 8 8 8 7 8 9 10 10 11 12 13 12 12 14 15 15 17 18 19 20 19 20 21 20 20
12 10 7 6 4 2 4 6 8 10 10 11 12 11 10 11 13 14 13 11 11 11 11 12 13 12 13 14 14 11 9 11 14 14 16 16 13 12 13 11 10 12 12 11 10 10 11 12 11 10 8 7 8 11 11 11 12 11 11 11 11 11 11 10 11 11 11 11 12 13 13 13 14 15 15 16 17 18 18 18 18 18 18 16 16
8 11 10 9 9 8 8 8 8 9 9 10 12 13 14 13 11 12 14 14 12 10 9 9 9 11 12 11 11 11 10 12 14 14 17 18 15 14 12 9 9 10 11 12 11 10 11 12 10 7 5 6 9 10 10 10 9 9 8 7 9 10 11 12 13 14 13 13 13 13 14 14 15 15 14 14 16 17 17 16 16 17 17 15 15
2 3 4 6 8 11 13 13 12 12 11 10 10 10 12 14 14 13 10 10 13 12 11 10 9 10 12 7 4 11 11 13 13 14 17 20 19 17 13 9 10 10 11 12 10 10 10 10 9 6 3 4 5 7 9 10 8 7 7 8 9 9 10 11 12 13 14 15 15 15 15 15 15 14 12 13 15 16 17 18 17 17 18 18 20
4 3 2 1 3 5 8 9 11 13 13 12 11 11 12 12 10 9 10 10 10 10 8 8 8 9 9 7 1 6 7 9 11 12 15 20 20 19 14 10 10 12 11 8 4 5 8 9 10 8 4 3 4 3 4 5 6 6 6 7 8 8 9 10 10 10 12 13 14 14 14 14 15 14 13 13 15 16 17 18 17 17 20 21 22
7 5 4 2 0 1 3 5 7 9 11 12 12 11 12 11 9 8 10 11 9 7 5 4 4 6 7 5 3 3 4 6 8 9 12 16 16 15 13 10 10 11 8 4 2 3 7 6 7 6 4 3 4 4 2 2 3 3 4 6 7 7 8 8 8 9 9 8 9 10 11 12 13 13 14 16 19 19 19 18 18 19 20 19 19
10 9 8 7 4 2 1 4 5 7 8 9 11 12 11 11 10 10 10 11 10 7 5 5 4 3 4 3 4 6 5 6 7 8 11 13 12 12 11 9 9 7 4 5 3 2 5 5 5 6 5 3 4 4 3 4 5 5 5 6 6 6 6 6 7 8 7 8 9 10 10 11 12 14 17 19 20 19 18 17 18 17 16 16 16
12 11 10 9 7 6 2 1 3 4 5 6 8 10 12 12 13 13 12 12 12 10 9 8 6 5 3 2 5 8 8 7 7 8 10 11 11 9 7 5 4 3 2 4 4 3 1 3 6 8 7 5 3 3 4 4 4 5 5 5 6 6 6 5 7 7 7 9 10 11 12 13 15 17 17 16 15 14 14 15 16 14 13 13 12
12 12 11 10 10 10 8 4 2 0 1 4 6 7 8 11 12 13 13 13 13 13 14 11 8 6 3 3 7 9 8 8 9 9 10 10 9 8 5 3 2 1 1 3 3 3 2 5 5 5 4 3 3 4 5 5 4 4 4 5 7 7 5 4 6 8 10 11 13 14 14 14 15 14 13 12 11 11 12 13 12 11 12 11 11
10 11 11 10 10 10 10 9 7 7 6 3 0 1 3 6 9 12 13 13 12 12 12 10 8 5 3 4 7 7 7 8 8 9 10 10 8 7 6 7 6 2 0 2 1 2 4 6 4 3 2 1 2 3 4 5 5 5 4 5 6 6 5 7 10 12 13 13 13 13 12 12 12 12 13 14 12 10 9 8 8 9 10 11 12
12 13 12 10 10 9 9 10 11 11 11 10 9 7 5 1 3 7 10 11 11 11 10 9 7 7 7 6 6 5 5 5 5 6 7 6 6 6 7 7 6 5 4 4 4 4 4 4 2 2 2 1 2 3 4 5 5 5 4 4 5 7 9 11 11 11 12 11 11 12 11 11 11 11 13 12 7 4 5 7 7 8 10 11 12
13 14 13 11 11 11 10 10 10 10 11 13 13 12 11 9 6 3 2 5 7 7 8 8 9 9 9 8 6 5 4 4 4 3 3 3 4 5 7 8 7 6 7 7 7 7 4 1 3 2 2 2 3 4 5 5 5 5 4 4 6 8 9 10 10 10 9 9 10 10 10 10 10 10 10 8 8 9 9 9 9 11 13 14 13
12 13 13 12 11 11 11 11 11 11 11 12 12 12 11 11 11 11 10 10 12 12 11 11 10 10 9 7 7 6 6 5 5 4 4 5 6 5 7 8 7 6 7 8 7 6 3 1 6 6 5 6 6 5 5 4 4 5 5 6 7 7 8 9 10 9 7 7 8 9 10 10 10 9 9 9 9 11 12 12 12 13 13 14 14
10 10 11 12 11 11 11 11 11 11 11 11 11 11 11 11 12 13 14 15 16 15 13 13 12 11 10 9 8 7 7 7 7 7 6 6 7 8 8 9 8 7 7 6 4 6 5 3 6 7 7 8 7 6 5 5 5 7 7 8 8 8 9 10 9 7 6 6 8 9 10 9 9 11 12 11 11 13 13 13 13 12 11 12 13
9 9 9 9 9 9 10 10 10 10 11 10 10 10 10 11 11 12 13 14 15 14 13 13 12 12 10 9 9 8 8 8 8 8 8 7 7 7 8 9 10 11 10 9 6 6 6 6 7 7 8 8 8 7 7 7 8 8 8 8 8 9 9 7 6 5 6 6 7 8 9 8 8 9 11 11 12 13 13 13 14 14 13 13 14
8 8 8 7 7 7 8 9 9 9 9 10 10 9 9 10 10 9 10 11 11 11 11 11 11 11 10 10 10 9 10 10 10 10 12 11 10 8 7 7 9 11 10 8 6 4 4 5 6 6 7 8 8 8 9 9 9 9 8 7 7 7 6 5 4 5 5 6 7 7 8 8 9 9 10 10 11 13 13 13 14 15 14 15 17
8 7 7 6 6 5 6 8 8 9 9 10 10 10 9 10 10 9 8 9 10 8 8 8 8 9 9 8 8 9 10 10 9 10 12 12 12 12 10 8 7 6 5 4 3 1 2 4 5 6 7 7 7 8 9 9 8 8 7 5 4 4 4 4 5 3 3 5 7 8 9 10 11 11 11 11 11 12 13 14 15 15 16 18 19
6 6 6 6 6 7 8 7 8 9 10 11 11 11 10 9 10 11 11 11 8 6 5 5 6 8 9 6 5 9 10 8 8 9 9 10 10 10 9 7 6 5 3 2 2 3 4 5 6 6 6 5 4 6 7 5 4 4 3 3 4 5 5 6 4 1 4 5 8 10 11 10 11 11 12 11 12 12 13 15 16 17 18 19 18
5 5 5 5 5 4 5 6 7 8 9 10 11 12 12 10 9 10 12 12 11 9 7 8 9 10 10 7 6 8 9 7 7 7 7 7 6 6 4 2 2 2 2 4 5 4 5 6 5 5 5 4 3 5 6 5 2 2 2 3 5 5 4 3 2 6 7 6 7 10 11 10 11 13 13 12 12 12 14 16 17 18 19 18 17
2 2 3 4 4 3 4 5 7 7 8 9 10 11 12 10 9 9 9 9 10 10 9 10 11 10 9 8 9 9 9 8 6 6 5 4 3 2 2 0 2 2 4 5 5 5 6 4 3 5 6 5 6 7 6 5 4 2 2 2 2 2 4 7 9 9 8 7 8 11 12 12 13 15 15 15 15 16 17 18 18 18 18 18 17
2 2 4 6 7 6 5 6 7 7 8 10 10 9 8 7 7 7 6 5 6 6 6 8 9 7 6 6 6 6 6 6 5 4 4 4 2 2 2 1 2 2 3 4 5 5 5 5 7 8 6 6 7 5 3 1 1 0 3 2 4 7 8 10 10 9 8 8 9 11 12 13 14 15 16 16 17 18 18 17 18 18 18 17 17
4 5 6 7 8 9 8 7 7 7 7 7 8 7 7 6 7 8 7 6 4 4 4 4 4 4 4 5 5 5 5 4 4 3 3 2 2 2 1 1 2 2 3 3 3 4 5 8 10 6 2 3 4 3 5 6 6 7 8 8 9 10 10 11 10 9 9 10 11 11 11 12 13 15 16 16 17 18 17 17 17 18 18 18 18
4 5 5 5 5 7 7 6 6 7 6 5 4 3 5 7 7 8 8 7 7 6 6 5 5 4 3 3 3 4 5 4 3 2 2 1 1 1 1 1 1 2 3 3 3 5 7 7 7 6 5 7 9 9 9 10 11 11 12 12 12 13 14 13 11 10 10 10 11 11 12 12 13 15 16 16 16 16 16 16 16 17 17 18 17
5 5 5 5 4 5 5 5 5 5 5 4 4 3 1 4 6 5 5 5 6 7 7 7 8 7 7 5 3 4 5 4 3 3 2 1 1 1 1 1 0 1 2 2 2 5 7 5 3 5 5 8 11 11 9 10 11 10 10 11 12 12 13 13 12 10 11 11 11 12 12 13 14 14 14 14 15 15 15 16 16 16 16 17 17
4 5 5 5 4 4 4 4 4 4 4 4 4 4 4 3 2 3 5 5 5 5 6 7 7 7 8 8 7 5 4 4 3 2 2 1 1 1 1 2 2 1 2 2 1 4 6 7 7 8 9 10 11 11 10 10 11 10 9 10 11 12 12 13 12 12 12 12 11 11 12 12 13 13 14 14 14 15 15 15 16 17 17 17 17
5 6 6 5 4 3 4 4 4 4 4 4 5 4 4 4 3 1 2 3 4 5 7 7 5 5 6 9 10 9 8 6 3 1 1 1 2 2 2 1 2 3 2 1 3 5 8 13 14 15 15 14 13 12 13 12 13 13 12 12 12 12 12 13 13 13 13 11 10 10 11 11 12 13 13 14 14 15 15 15 15 16 16 17 17
6 6 5 4 4 4 4 4 3 2 2 2 4 4 4 3 3 3 2 1 1 2 7 8 4 3 6 10 10 9 10 11 7 2 1 1 2 2 2 4 7 6 2 4 7 9 12 13 14 14 15 16 15 14 13 13 13 12 13 12 12 11 11 12 13 13 12 12 11 11 11 11 12 13 13 13 14 15 15 15 16 17 18 19 20
6 6 5 4 4 4 4 4 2 2 2 1 1 2 3 2 3 4 3 2 3 3 4 7 5 4 6 8 9 8 8 11 10 4 1 2 3 4 5 7 8 6 9 11 10 11 11 11 11 12 13 13 13 12 11 12 11 11 12 13 12 10 10 11 11 11 10 11 12 13 14 14 15 15 15 15 15 15 16 17 18 19 19 20 20
6 8 8 6 5 4 3 3 2 2 2 2 1 0 1 2 2 2 2 2 2 2 1 2 4 6 7 7 7 6 6 11 12 6 2 3 4 6 8 9 7 8 11 10 9 10 10 9 9 10 10 10 10 9 9 10 9 10 11 11 10 9 9 10 10 10 10 12 13 14 14 14 14 15 15 15 15 16 17 17 18 18 18 17 17
5 6 7 7 6 3 3 3 1 0 1 1 0 0 1 1 2 1 1 2 1 1 2 1 7 10 8 7 8 8 8 11 13 8 6 6 6 8 11 11 10 10 10 10 9 9 9 9 8 8 7 7 7 7 7 8 8 9 9 8 9 9 9 9 11 11 11 12 12 12 12 13 14 15 15 14 15 16 16 16 16 16 16 17 17
6 6 5 6 6 4 2 1 2 1 1 1 1 0 0 0 1 2 2 2 1 1 2 3 8 9 7 8 11 13 11 10 11 7 6 7 7 8 9 10 10 10 10 10 10 10 10 10 10 9 7 6 6 6 6 7 8 8 8 8 8 8 8 9 10 10 10 10 11 11 13 14 15 15 14 14 14 15 15 15 16 16 16 17 17
8 7 6 6 6 5 3 3 3 3 2 1 1 1 1 1 1 2 3 2 2 2 2 3 8 8 8 11 13 13 10 7 7 6 5 6 6 7 7 7 8 8 8 8 8 8 7 8 9 8 7 8 8 6 6 7 7 9 10 10 9 9 9 9 9 9 10 11 12 13 14 14 14 14 13 13 14 14 14 15 15 15 16 16 16
9 8 7 6 6 6 4 4 4 3 1 0 0 0 1 2 2 3 3 3 3 3 3 2 6 6 8 12 12 9 6 2 2 4 5 5 5 6 6 5 4 5 6 6 6 6 4 4 5 5 6 8 9 7 6 6 7 8 10 10 11 11 9 9 10 10 11 12 13 14 13 13 12 12 12 13 14 14 14 15 15 15 15 16 16
8 7 7 7 6 5 4 3 4 4 2 2 3 2 2 3 3 3 3 3 3 3 3 1 3 5 6 9 10 8 6 4 2 3 7 7 5 5 6 5 4 5 5 4 5 6 5 4 4 4 5 6 7 6 6 6 7 7 8 9 9 8 8 9 11 12 13 13 13 12 12 12 12 12 12 12 13 13 14 14 15 15 15 16 16
9 7 8 8 6 4 4 4 4 3 1 3 3 2 2 2 2 4 5 6 5 5 5 6 2 3 5 6 6 5 5 5 5 5 6 5 4 5 6 7 6 5 4 3 5 6 5 3 4 5 4 5 6 6 6 6 6 7 7 7 6 7 9 10 11 12 12 12 11 11 11 12 12 12 12 12 13 14 14 14 14 15 15 15 15
10 8 8 8 7 6 6 6 6 4 2 0 0 2 5 6 6 3 5 8 7 6 7 8 6 2 4 5 5 4 3 4 4 4 4 2 2 4 6 7 6 5 4 3 3 4 3 3 3 4 4 6 6 6 5 5 6 6 5 3 4 6 7 8 9 9 10 9 9 9 11 11 11 12 12 13 13 14 14 14 15 15 16 16 16
9 9 9 9 9 8 8 7 6 6 6 4 2 3 6 6 2 1 3 4 4 7 11 10 7 4 3 5 5 4 4 4 3 3 3 3 1 4 5 5 4 3 3 3 3 2 2 2 3 3 4 4 5 5 4 4 4 4 2 1 2 4 6 8 8 7 7 8 9 10 11 11 12 12 13 13 14 14 14 15 15 15 16 16 16
11 9 10 11 10 9 8 6 4 2 3 3 3 4 6 6 6 6 5 3 3 5 9 10 8 6 6 5 5 4 4 5 4 4 4 4 2 3 3 2 2 2 2 3 3 2 2 2 2 2 3 3 3 3 3 3 3 2 1 2 3 5 7 8 8 9 11 11 10 10 10 11 12 12 13 14 14 14 15 15 15 16 16 16 16
11 10 10 9 8 8 9 9 6 3 2 1 3 4 6 6 6 7 8 6 4 4 6 7 8 8 7 6 6 5 5 5 5 4 4 4 3 2 1 2 2 3 3 3 3 2 2 2 2 2 2 2 2 2 2 2 2 2 2 4 6 8 9 10 11 14 15 13 11 10 11 12 13 13 14 14 14 14 15 15 15 16 16 16 18
7 7 7 7 9 9 9 9 7 5 2 3 5 4 5 5 5 6 8 7 6 7 7 7 7 7 7 6 6 5 5 5 5 5 5 5 4 3 3 3 3 3 3 3 3 3 2 2 2 2 2 2 2 2 2 2 1 2 4 7 9 11 13 14 15 16 15 14 13 14 14 14 13 13 13 13 13 14 14 14 15 17 18 18 19
4 4 4 5 8 7 5 5 6 6 5 6 8 7 5 5 6 7 7 7 7 7 7 7 7 7 6 6 6 6 6 6 5 5 5 5 5 4 4 4 3 3 3 3 3 3 3 2 2 2 2 2 2 2 3 3 4 6 8 11 12 14 16 17 17 16 16 15 15 15 15 14 13 13 12 13 13 13 14 15 17 19 19 18 19
5 5 4 4 5 4 2 2 5 6 5 6 9 9 6 5 7 8 8 7 8 7 7 7 7 7 6 6 6 6 6 6 5 5 5 5 5 5 4 4 4 4 4 4 4 3 3 3 3 2 2 2 3 3 3 4 6 9 11 13 15 16 15 15 15 16 16 16 16 16 15 13 12 12 12 13 13 14 16 18 19 19 18 17 18
Wind_Direction
178 179 187 193 191 187 191 195 194 197 195 192 192 194 203 206 201 201 202 203 203 202 203 204 206 208 207 211 212 209 209 212 213 212 212 218 220 224 233 234 229 232 241 248 254 258 251 241 252 263 266 272 280 282 280 270 244 238 259 275 290 287 266 249 260 281 297 309 313 317 322 324 328 333 334 329 321 322 327 327 326 321 319 323 325
178 177 185 193 193 191 194 195 196 201 200 198 197 197 204 207 203 202 203 202 200 203 209 209 210 212 211 212 211 208 210 212 213 212 213 220 224 226 233 239 239 237 239 245 248 252 253 251 254 259 262 260 258 267 277 281 278 270 260 252 261 275 238 240 284 293 299 310 315 320 323 322 325 328 328 323 318 321 326 327 325 323 329 336 329
179 178 184 189 192 195 199 196 195 202 207 208 206 202 203 204 204 203 200 199 199 203 211 212 211 212 214 213 206 205 210 209 210 215 219 221 221 224 233 238 235 235 239 244 246 246 248 252 254 255 259 258 256 263 273 282 281 275 276 263 252 250 213 242 284 288 296 311 320 322 324 325 321 318 320 322 321 323 326 327 328 323 325 330 325
178 180 183 187 194 197 200 199 198 204 210 215 214 211 209 207 207 208 204 204 206 208 211 214 212 210 214 216 207 207 212 208 212 222 226 224 222 224 230 232 228 232 238 239 240 241 242 245 247 250 256 260 264 268 271 277 276 267 276 278 266 265 255 266 286 286 296 306 310 315 316 310 306 306 312 318 319 320 320 322 326 323 323 330 329
181 188 186 189 200 203 202 201 202 206 211 216 218 217 217 214 213 213 212 210 207 206 210 213 212 208 211 219 215 211 214 213 214 221 226 227 226 225 228 232 232 233 237 241 242 241 240 241 243 244 248 249 252 260 262 264 267 273 282 281 279 287 278 276 289 286 284 289 293 302 302 296 300 308 310 315 318 315 311 312 317 321 322 324 324
182 190 191 195 205 210 213 211 209 211 215 219 222 222 222 221 220 218 219 216 209 208 211 211 213 212 211 219 224 216 215 220 220 221 226 226 224 225 228 233 236 236 238 241 242 240 239 241 244 242 241 241 243 250 255 257 258 266 278 280 282 292 285 276 284 281 275 276 281 289 295 305 322 325 318 312 306 300 297 301 308 312 311 312 318
182 186 192 200 204 210 221 228 227 223 221 225 230 232 230 226 224 222 221 221 217 215 213 209 213 216 212 216 226 225 220 222 225 224 226 229 229 229 230 231 232 233 235 237 239 241 239 239 241 240 238 240 245 246 246 249 253 257 268 275 283 291 290 289 294 297 297 298 299 303 311 322 320 310 302 297 295 294 295 297 302 307 309 314 321
184 195 204 209 204 206 219 232 241 240 237 237 237 241 245 242 237 232 223 220 222 222 219 212 208 209 212 214 218 226 225 223 228 230 227 230 234 232 232 234 234 232 233 235 240 244 242 242 247 247 237 234 239 242 244 245 244 252 278 277 281 292 295 298 301 307 311 308 307 310 311 307 300 294 293 297 305 313 311 305 307 318 328 328 323
192 209 224 232 219 210 219 229 238 243 251 259 257 261 264 259 253 248 236 230 228 226 227 225 212 204 212 217 215 220 224 224 230 234 231 232 234 233 233 235 239 240 237 239 245 248 249 247 248 246 239 236 238 236 235 237 235 251 284 278 272 282 286 292 297 301 302 298 300 305 302 297 300 309 319 327 332 336 336 334 334 336 334 326 319
252 239 242 246 239 235 229 218 215 220 228 237 250 280 296 292 283 269 252 241 238 234 231 233 229 216 211 214 216 216 219 227 232 232 234 237 236 238 239 237 242 249 247 248 253 256 259 258 252 250 245 243 242 235 235 245 254 263 272 269 265 270 278 288 293 298 304 305 305 308 306 309 325 340 342 340 340 342 343 342 337 331 327 320 316
249 241 241 246 246 257 247 224 213 215 217 218 220 232 257 283 303 304 290 265 247 242 235 234 243 238 219 213 214 210 214 231 237 236 235 236 234 238 243 244 249 254 253 253 256 259 265 265 262 257 246 232 232 237 245 257 265 271 274 272 271 274 280 285 288 296 308 314 315 316 318 324 336 342 340 338 340 341 338 334 329 326 324 319 316
244 243 246 252 252 255 261 259 245 237 233 224 219 220 224 231 249 276 292 291 279 268 250 246 261 263 255 240 212 201 213 230 240 243 235 230 229 232 238 247 253 254 255 256 256 261 267 272 274 273 263 247 238 245 260 264 263 273 284 286 284 284 284 284 285 289 294 299 304 309 312 318 324 330 336 339 338 335 332 330 327 321 318 313 309
169 210 237 253 254 255 260 264 263 258 251 241 235 234 227 216 213 224 244 271 285 279 258 252 265 275 293 316 178 185 210 227 238 246 236 226 224 223 228 245 252 253 260 260 258 268 284 309 339 2 352 284 255 246 260 263 261 274 283 289 295 296 293 286 282 282 283 283 286 290 294 303 311 318 325 329 329 329 326 322 318 312 307 304 300
101 111 131 209 236 250 257 260 261 259 254 246 239 240 237 227 220 228 228 233 264 279 261 252 262 262 287 334 43 181 207 224 234 246 236 222 218 219 227 244 252 257 270 277 278 294 306 331 355 8 5 302 282 264 258 261 263 270 279 294 304 301 296 291 284 285 286 283 282 286 292 298 303 306 309 315 321 322 318 314 313 309 303 299 299
78 78 71 61 44 253 254 256 256 249 244 237 232 234 240 235 228 235 232 227 244 276 281 281 289 259 253 283 280 207 200 221 230 232 223 213 211 218 227 239 254 264 289 339 16 306 305 316 323 325 328 295 277 277 266 260 264 271 297 314 312 301 298 299 296 296 296 290 287 290 294 295 293 293 300 309 313 312 309 307 306 305 303 303 307
71 69 66 55 40 27 277 255 250 241 234 230 229 232 238 237 232 230 229 231 241 261 277 278 279 252 243 265 261 238 226 231 225 212 210 212 213 218 223 236 258 268 303 353 12 317 300 300 275 262 253 237 248 257 254 259 267 277 297 311 313 306 302 304 304 301 295 288 285 282 284 289 291 294 300 305 306 306 306 305 306 310 313 316 320
78 71 65 58 50 44 35 250 234 238 230 220 225 232 234 234 236 239 239 239 239 242 251 257 249 239 243 229 233 240 238 232 223 209 212 221 223 223 224 244 272 280 286 323 13 48 244 232 226 234 237 236 247 259 259 264 275 290 306 315 311 306 307 310 316 320 311 298 289 284 286 291 295 299 302 303 303 304 301 301 309 318 323 323 321
91 85 76 68 62 54 48 55 87 124 228 225 229 233 236 235 233 237 240 240 237 234 237 244 244 238 225 183 209 231 232 228 231 228 227 234 237 234 228 225 239 342 323 289 346 43 142 167 179 213 230 239 263 273 277 285 294 303 316 317 308 308 317 315 313 315 311 307 304 302 301 302 303 307 311 314 310 300 295 301 312 320 321 320 315
75 85 86 79 70 61 57 64 75 75 72 66 256 221 244 243 229 228 232 231 227 224 227 235 236 222 195 185 208 224 223 222 232 237 236 242 243 230 218 215 218 214 226 231 161 118 159 159 150 155 154 172 272 288 301 312 312 304 309 315 310 312 318 315 316 317 315 317 320 318 317 318 320 317 315 315 310 295 296 317 329 325 323 320 316
55 69 80 78 70 67 69 75 76 75 75 69 62 66 65 46 220 226 233 232 230 230 228 230 223 211 213 212 202 200 200 200 210 226 234 241 237 218 201 192 185 161 152 149 115 119 166 183 160 133 121 80 343 339 338 339 334 321 315 308 299 301 307 312 319 323 324 329 332 328 326 328 329 322 316 322 337 347 348 352 346 338 337 328 318
66 69 75 74 68 65 68 70 72 77 83 77 66 65 65 64 78 115 174 197 196 188 182 181 175 175 189 198 191 181 172 157 154 173 188 183 192 199 184 166 154 146 148 143 124 113 117 221 277 278 297 314 331 343 339 335 330 320 313 303 298 302 310 320 327 328 328 331 330 329 331 329 326 324 326 345 25 33 16 1 348 340 334 324 314
78 76 76 76 71 67 67 65 64 69 80 80 74 72 69 65 72 85 95 107 114 113 119 129 130 129 137 149 158 156 148 139 134 130 130 129 131 146 157 151 145 143 142 146 158 160 144 283 289 294 305 308 315 324 322 313 301 296 300 304 300 299 307 319 327 331 331 331 329 329 331 329 331 344 355 2 6 1 356 349 343 337 331 326 321
80 78 76 76 72 68 69 70 69 70 71 72 74 79 78 72 74 80 84 89 92 91 94 100 99 99 105 111 112 112 115 121 126 119 112 114 115 120 131 134 132 129 115 111 154 185 185 224 268 282 295 302 307 306 296 291 293 293 298 302 299 297 301 309 319 326 328 327 328 327 327 333 346 358 2 358 349 344 344 342 337 333 333 335 333
75 76 75 78 79 78 77 75 76 77 77 74 72 75 80 83 85 86 86 87 86 85 87 92 91 90 93 93 87 81 74 77 93 105 106 106 110 117 124 124 120 116 109 104 120 159 184 214 246 269 289 299 302 297 289 289 292 294 299 304 301 298 300 305 311 317 320 325 328 326 328 341 355 355 351 349 344 340 337 335 333 332 333 335 333
65 68 69 67 73 93 102 95 87 85 86 83 75 69 74 80 82 88 98 100 96 93 95 95 94 93 91 85 83 81 72 69 80 93 92 85 83 86 97 113 118 119 119 120 128 154 196 234 257 274 287 294 298 297 293 290 289 293 301 305 296 291 298 307 310 312 319 325 326 326 336 351 358 355 350 344 339 340 341 341 342 342 340 336 331
62 60 62 55 47 66 92 100 100 94 90 88 82 72 70 72 66 64 78 90 93 99 105 107 111 112 104 94 92 90 78 68 74 82 80 73 69 64 60 68 83 91 94 101 116 176 264 283 290 295 299 300 298 293 291 291 293 297 307 308 296 299 307 291 280 290 343 356 355 358 2 3 360 356 353 345 342 347 351 351 350 347 340 333 330
66 63 63 56 45 44 51 65 78 73 64 69 76 69 60 56 54 52 54 57 61 70 85 90 95 101 101 103 111 106 93 74 63 66 66 67 67 61 54 57 64 67 59 12 329 311 298 295 298 306 310 310 305 294 290 296 308 309 312 304 294 304 305 283 261 119 66 32 13 5 359 357 354 349 346 343 342 346 350 351 349 344 336 331 327
66 72 80 84 81 74 63 63 72 71 59 60 71 73 65 55 52 54 54 50 43 39 47 54 55 70 86 87 85 96 98 83 67 62 59 62 68 72 79 81 52 33 328 307 311 305 290 283 285 298 303 297 291 288 279 269 277 317 315 297 290 288 281 263 105 80 62 35 14 4 0 1 357 350 346 346 349 355 355 351 345 339 334 330 324
52 83 105 97 92 108 109 80 72 83 88 82 79 80 78 71 62 54 50 48 44 40 48 58 56 59 75 77 72 80 88 83 73 65 60 58 51 52 70 16 320 319 303 304 308 298 294 295 288 284 287 280 276 279 270 243 209 196 252 287 337 40 91 101 89 71 55 39 23 14 13 10 1 354 353 355 357 357 352 345 340 336 334 331 327
20 48 57 48 33 35 72 76 59 65 89 97 94 90 89 85 74 62 49 40 35 32 46 66 68 64 66 68 67 74 79 76 69 57 52 55 46 35 34 5 349 330 306 306 306 302 314 321 295 276 263 258 264 275 299 287 166 126 324 356 81 78 75 78 72 57 43 34 24 18 15 7 358 355 356 355 352 349 345 342 340 338 337 336 332
51 56 51 42 27 30 50 63 52 44 57 82 97 104 107 97 81 72 68 60 49 35 35 54 67 61 50 47 44 44 45 46 45 39 30 27 30 33 25 3 346 328 319 312 312 319 323 317 311 309 311 307 315 3 29 27 43 39 18 33 70 70 52 44 43 35 29 25 20 17 12 4 356 355 354 350 345 341 340 340 341 341 342 340 337
73 76 68 59 46 43 48 53 52 43 39 49 67 99 134 129 108 88 78 74 74 71 64 61 60 54 45 27 358 350 354 357 6 19 24 23 22 355 326 334 337 330 325 323 344 350 334 320 335 8 17 4 19 41 38 27 39 42 26 26 44 49 42 37 33 26 22 19 16 14 9 2 356 352 348 343 338 337 338 339 339 340 339 337 337
86 93 91 80 69 62 53 50 56 50 39 39 33 11 89 132 132 126 111 97 90 85 80 76 68 58 51 42 359 325 324 329 337 355 7 0 337 313 306 322 1 351 326 315 331 341 333 325 351 21 25 29 36 40 34 28 34 35 23 19 25 30 31 30 27 23 22 18 15 12 6 359 352 346 341 338 336 337 339 340 340 341 340 340 340
95 109 111 99 89 90 81 67 59 48 37 29 14 357 9 35 85 153 156 150 141 130 116 100 83 67 52 41 29 12 353 336 321 337 354 338 317 308 253 191 142 80 27 30 330 318 342 14 32 34 42 50 45 37 34 30 28 28 23 16 16 21 25 23 21 21 19 14 9 4 357 350 345 341 338 338 339 341 342 342 341 342 342 342 341
117 125 127 116 102 99 93 77 62 53 45 25 4 0 12 10 352 332 152 158 173 175 161 137 101 76 62 48 39 33 22 8 350 261 218 245 277 290 265 234 263 267 260 53 32 10 30 46 45 39 40 46 44 40 38 32 26 27 23 13 11 17 18 13 10 13 13 6 357 351 345 341 341 341 340 341 344 345 343 341 341 342 343 343 344
139 136 136 125 108 97 94 91 77 56 47 18 356 355 358 354 345 348 11 43 17 148 151 147 129 81 72 56 40 29 22 17 14 29 153 207 288 310 341 325 306 287 237 90 60 51 54 53 44 36 35 35 33 33 34 30 24 19 15 13 15 15 7 359 357 359 357 351 348 349 350 350 351 352 350 348 349 349 347 348 350 349 347 345 341
160 148 139 127 115 106 105 109 94 63 76 114 6 347 346 355 355 344 350 28 27 34 121 150 162 149 107 71 41 22 18 15 8 358 114 77 28 11 355 334 331 12 57 62 55 51 52 47 40 36 31 27 27 28 24 20 15 8 6 11 15 11 358 348 348 352 353 355 359 5 7 6 5 5 4 359 356 355 354 354 350 344 340 338 334
146 142 144 145 134 118 125 142 128 72 99 156 189 280 350 3 345 326 339 8 14 343 267 171 135 116 103 77 45 18 3 4 1 1 71 75 35 22 10 358 9 48 53 46 41 44 44 41 37 31 22 18 22 21 12 7 5 0 359 0 359 355 347 346 356 7 9 7 8 9 9 8 9 10 8 3 357 354 351 347 343 336 333 333 332
155 160 169 170 163 148 142 155 157 111 141 166 172 86 29 353 338 334 340 328 308 296 308 36 84 84 75 50 26 9 352 348 353 14 69 73 45 40 37 29 31 43 43 40 40 37 33 29 26 23 19 11 6 2 359 357 353 350 349 346 344 346 349 356 7 13 12 10 11 13 14 15 12 7 4 358 351 348 343 339 336 334 332 332 332
167 175 173 167 169 168 154 154 172 169 139 101 41 16 132 1 347 349 337 325 348 18 354 48 81 74 47 20 10 360 344 329 329 354 58 63 42 43 48 37 27 26 29 38 41 32 23 18 15 14 8 350 340 343 351 350 346 344 343 340 339 343 352 1 6 12 18 22 21 18 16 13 5 356 353 350 345 341 337 334 333 333 332 331 330
165 164 159 161 171 177 188 198 179 147 87 40 345 342 24 47 18 339 329 334 2 358 353 88 97 77 30 14 7 352 336 318 314 336 31 58 58 53 43 29 20 16 15 26 32 23 10 0 356 354 345 336 338 353 0 356 354 352 350 352 356 359 2 6 14 28 38 33 24 15 9 4 357 351 347 344 339 335 332 330 329 327 327 326 326
171 168 164 167 176 186 197 191 161 140 123 311 250 207 31 31 25 6 346 342 347 340 339 79 102 79 32 24 23 13 0 334 290 329 10 42 76 69 40 19 19 18 15 19 21 14 8 356 345 339 338 343 352 3 3 358 359 359 357 359 1 1 4 14 24 32 32 25 17 11 2 355 351 348 342 337 334 331 329 328 326 326 326 327 328
185 191 188 179 181 192 195 172 151 155 154 46 39 59 65 39 11 345 324 308 301 302 301 288 121 98 56 32 26 20 8 345 314 1 23 34 57 60 48 56 70 54 37 24 14 19 35 33 353 334 337 348 1 10 8 1 1 358 351 348 349 355 14 28 30 28 23 17 10 3 356 351 348 342 336 333 332 330 328 328 328 329 330 331 331
189 204 205 196 193 195 181 159 151 156 113 46 38 44 46 30 338 304 298 288 278 277 278 271 251 94 60 24 5 359 352 344 343 2 14 19 29 38 47 63 68 54 35 10 4 14 28 12 338 335 346 356 7 16 13 3 356 349 342 348 11 38 46 39 30 24 18 11 4 355 349 345 340 335 332 332 331 330 329 330 331 331 330 330 330
181 199 206 202 199 198 192 183 177 176 180 207 220 225 235 223 203 214 279 283 284 302 305 288 279 320 7 349 335 330 329 330 333 334 330 330 20 44 49 55 48 27 8 353 352 0 1 337 326 337 350 359 11 18 10 354 350 347 341 357 43 51 37 20 14 12 9 5 358 350 343 337 331 329 330 331 332 333 333 332 332 332 331 332 331
181 202 214 217 217 213 210 212 205 192 196 217 242 258 262 260 247 12 296 280 307 340 337 322 307 301 308 307 309 316 314 302 297 299 287 274 322 37 40 35 20 0 341 325 318 321 327 337 349 359 0 1 5 3 352 346 353 359 16 69 32 359 351 355 358 355 348 344 342 339 335 330 327 328 331 333 335 335 334 332 332 332 331 331 330
192 205 219 228 231 225 218 229 238 191 181 220 263 283 293 310 331 329 316 334 7 339 320 313 304 292 285 283 285 292 294 284 280 286 282 274 298 25 29 0 332 324 312 307 310 316 330 350 9 10 356 341 338 339 344 354 358 9 72 66 13 349 351 358 354 341 335 335 336 335 332 329 328 330 333 334 334 333 332 331 331 331 329 327 325
207 215 222 229 233 229 222 220 212 165 128 247 276 285 288 291 288 281 286 307 319 281 271 281 282 275 274 277 273 274 280 279 277 281 280 277 293 354 353 305 306 312 308 304 304 305 312 329 342 337 327 326 332 332 335 348 3 27 37 21 0 349 349 350 345 340 340 341 341 339 337 333 329 328 330 330 329 329 328 326 324 324 322 318 316
205 210 218 227 231 231 233 227 208 181 193 255 256 255 259 267 273 274 274 276 272 264 265 273 272 266 265 267 267 273 283 284 281 283 283 280 283 286 281 281 292 299 303 306 303 300 304 312 314 317 319 322 329 334 334 336 334 333 339 342 340 337 335 332 330 333 337 339 339 342 344 339 330 324 324 324 323 322 321 318 316 315 313 311 311
172 180 205 240 246 248 262 260 235 215 219 244 252 248 236 233 250 264 265 263 264 266 267 268 270 272 275 276 271 271 274 277 279 281 279 274 271 269 270 279 289 294 301 305 302 301 307 306 301 308 316 314 320 337 342 323 304 306 317 324 323 322 322 323 325 329 334 336 336 340 341 335 324 317 316 318 318 315 313 311 309 307 305 305 307
176 190 207 241 255 256 268 277 261 250 239 248 266 276 276 253 247 251 254 256 261 263 266 271 272 271 273 275 272 267 268 275 281 282 279 276 272 269 270 278 283 284 289 294 291 291 295 297 298 304 307 304 310 322 323 313 312 315 316 315 313 314 319 324 327 328 329 329 331 334 336 329 318 310 310 312 312 309 305 304 303 303 305 307 308